DECAYED

STARLINK-1736, 46585 (Decayed)

Orbit data source: Space-Track

STARLINK-1736, 46585 was a payload satellite owned by SpaceX/Seattle (US) in LEO that was launched on Tue, 06 Oct 2020 UTC via an FALCON 9 launch vehicle from the Air Force Eastern Test Range (AFETR). Payload-class satellites include a variety of spacecraft equipped with specific instruments for various scientific and technological missions. These include communications satellites like Starlink; space stations such as the ISS; scientific satellites like the Hubble; Earth observation satellites from companies like Planet Labs, Umbra, and HawkEye 360; GPS; miniature CubeSats for education and research; and military/defense satellites.

Not visible in the next 10 days
Identifier
46585, 2020-070BF
Orbit
Decayed
Country
Flag of USUS
Related business
Manufacturer
SpaceX/Seattle
Mission
Decayed Commercial Communications
Bus & Motor
STARLINK, Unknown motor
Mass
260 kg wet, ~248 kg dry
Launch date (UTC)
2020-10-06 (6 years ago)
Launch vehicle
FALCON 9
Launch site
Air Force Eastern Test Range (AFETR)
Object type
Payload
Rocket body
Debris
Shape & HBR
Box + 1 Pan, 10.1 m
Radar Cross Section
13.562 m², Large (>1 m²)

Expand to show TLE details & history
Last TLE update: 2 days ago

TLE from 2 days ago
0 STARLINK-1736
1 46585U 20070BF  26166.72677522  .11013613  12531-4  34518-3 0  9992
2 46585  53.0176 341.7037 0009240 289.1749  70.8299 16.44221652315885
Epoch: 2026-06-15T17:26Z
TLE epoch observation values (Epoch: 2026-06-15T17:26:33.379Z)
Latitude
0.00004°
Longitude
176.05563°
Altitude
153.547 km
Speed
7.817 km/s
True Right ascension
22h 46m 48s
True Declination
0° 00' 00"
Sunlit
Object was in daylight at epoch
Visualization orbit readout
Latitude
Unknown
Longitude
Unknown
Altitude
Unknown
Speed
Unknown
Apparent Right ascension
Unknown
Apparent Declination
Unknown
Sunlit
N/A
Visualization observer readout
Local Sidereal Time
07:16:52
Azimuth
Unknown
Elevation
Unknown
Doppler factor
Unknown
Orbital elements
Apogee altitude
160.926 km
Perigee altitude
148.853 km
Semi-major axis
6,533.026 km
Eccentricity
0.00092
Inclination
53.0176°
RAAN
341.7037°
Arg. of periapsis
289.1749°
True anomaly
70.92995°
Mean anomaly
70.8299°
Eccentric anomaly
70.87992°
Mean motion
4.11028 °/min
Orbital period
87.59 mins
BSTAR
0.00034518
Loading maneuver chart data...
Computing Atmospheric mass density...

Documentation

Showing up to 5 results
|